Regional Weather Roundup
Issued by NWS Columbia, SC

Home | Current Version | Previous Version | Text Only | Print | Product List | Glossary On
Versions: 1 2 3 4 5 6 7 8 9 10 11 12 13 14 15 16 17 18 19 20 21 22 23 24 25 26 27
000
ASUS42 KCAE 221410
RWRCAE
REGIONAL WEATHER ROUNDUP
NATIONAL WEATHER SERVICE COLUMBIA SC
1000 AM EDT SAT JUL 22 2017

NOTE: "FAIR" INDICATES FEW OR NO CLOUDS BELOW 12,000 FEET WITH NO
SIGNIFICANT WEATHER AND/OR OBSTRUCTIONS TO VISIBILITY.

NOT ALL STATIONS ARE QUALITY CONTROLLED BY THE NATIONAL
WEATHER SERVICE. USE DATA WITH CAUTION...ESPECIALLY
DEWPOINT OBSERVATIONS.

SCZ001>056-GAZ040-063>065-077-221500-
...UPSTATE SOUTH CAROLINA...

CITY           SKY/WX    TMP DP  RH WIND       PRES   REMARKS
ANDERSON       SUNNY     82  73  74 S5        30.05R
LIBERTY        SUNNY     84  75  74 CALM      30.05R
SPARTANBURG    SUNNY     82  72  69 CALM      30.03S
CLEMSON        SUNNY     83  76  79 VRB5      30.06R
GREENVILLE     SUNNY     86  74  67 W6        30.06R
GREENWOOD      SUNNY     81  72  74 SW6       30.06S
GREER          SUNNY     86  75  69 SW7       30.04R HX  95
ROCK HILL      SUNNY     84  73  69 SW7       30.04R
CHESTER        SUNNY     82  70  65 SW3       30.04F
LAURENS        SUNNY     81  72  74 SW6       30.04S


...CENTRAL SOUTH CAROLINA...

CITY           SKY/WX    TMP DP  RH WIND       PRES   REMARKS
COLUMBIA APT   MOSUNNY   84  73  69 W5        30.04R
COLUMBIA OWENS SUNNY     83  73  72 VRB5      30.05R
MCENTIRE ANGB  MOSUNNY   81  74  79 S5        30.05S
ORANGEBURG     SUNNY     82  72  71 SW5       30.05S
SUMTER SHAW    SUNNY     82  73  72 SW7       30.02S
NEWBERRY       SUNNY     81  73  78 SW6       30.07S
AIKEN          FAIR      81  72  74 CALM      30.09S
BARNWELL       FAIR      84  75  74 SW6       30.05S
MANNING        FAIR      82  75  78 W6        30.05S
CAMDEN         FAIR      82  73  74 VRB5      30.05S
LANCASTER      SUNNY     82  75  78 S6        30.04R
WINNSBORO      SUNNY     81  72  74 SW6       30.05R


...EASTERN AND COASTAL SOUTH CAROLINA...

CITY           SKY/WX    TMP DP  RH WIND       PRES   REMARKS
MYRTLE BEACH   PTSUNNY   84  75  74 SW10      30.06R
N MYRTLE BCH   MOSUNNY   85  76  74 SW13      30.05R
CONWAY         FAIR      82  77  83 SW6       30.06R HAZE
MARION         FAIR      82  73  74 S8        30.05R
HARTSVILLE     FAIR      81  75  83 S5        30.03F
FLORENCE       SUNNY     83  75  77 SW10      30.04R
DARLINGTON     SUNNY     83  76  79 S8        30.04R
CHARLESTON APT SUNNY     85  74  69 W5        30.05R
MOUNT PLEASANT FAIR      86  77  74 SW7       30.05S HX  97
WALTERBORO     SUNNY     82  72  69 W6        30.07R
BEAUFORT       SUNNY     84  74  71 W5        30.06S


...EASTERN GEORGIA...

CITY           SKY/WX    TMP DP  RH WIND       PRES   REMARKS
AUGUSTA BUSH F SUNNY     83  74  74 S5        30.05R
AUGUSTA DANIEL SUNNY     83  71  67 SW6       30.07R
THOMSON        SUNNY     82  72  72 NW7       30.11R
WASHINGTON     FAIR      82  77  83 SW6       30.06R
CLAXTON        FAIR      82  74  75 SW6       30.08S
SYLVANIA       SUNNY     82  75  81 W3        30.08R
STATESBORO     SUNNY     83  74  73 SW5       30.07S
SAVANNAH       MOSUNNY   84  72  67 W6        30.07S


...SOUTHERN NORTH CAROLINA...

CITY           SKY/WX    TMP DP  RH WIND       PRES   REMARKS
CHARLOTTE      MOSUNNY   85  73  67 SW6       30.03S
MONROE         SUNNY     83  72  69 SW7       30.02S
ROCKINGHAM     SUNNY     82  75  78 S6        30.02S
RUTHERFORDTON  SUNNY     81  74  79 CALM      30.05F
ASHEVILLE      SUNNY     80  72  76 CALM      30.12F

$$




USA.gov is the U.S. government's official web portal to all federal, state and local government web resources and services.